Regional Weather Roundup
Issued by NWS

Home | Current Version | Previous Version | Graphics & Text | Print | Product List | Glossary On
Versions: 1 2 3 4 5 6 7 8 9 10 11 12 13 14 15 16 17 18 19 20 21 22 23 24 25 26 27 28 29 30 31 32 33 34 35 36 37 38 39 40 41 42 43 44 45 46 47 48 49 50
000
ASUS43 KIND 131559
RWRIN

WEATHER ROUNDUP FOR INDIANA
NATIONAL WEATHER SERVICE INDIANAPOLIS IN
1100 AM EST WED DEC 13 2017

NOTE: "FAIR" INDICATES FEW OR NO CLOUDS BELOW 12,000 FEET WITH NO
SIGNIFICANT WEATHER AND/OR OBSTRUCTIONS TO VISIBILITY.

* - STATION DOES NOT REPORT WEATHER SUCH AS PRECIPITATION OR FOG.

+ - STATION NOT QUALITY CONTROLLED BY THE NATIONAL WEATHER SERVICE.
    USE DATA WITH CAUTION...ESPECIALLY DEWPOINT AND RELATIVE
    HUMIDITY OBSERVATIONS.

INZ001>003-010>013-019-020-131700-
NORTHWEST INDIANA

CITY           SKY/WX    TMP DP  RH WIND       PRES   REMARKS
GARY /AIRPORT/ CLOUDY    32  10  40 S14G28    29.48F WCI  22
MICHIGAN CITY+ CLOUDY    28  12  50 S10G22    29.53F WCI  19
MONTICELLO +   CLOUDY    29   8  40 S12G18    29.59F WCI  20
RENSSELAER +   CLOUDY    32   3  29 S20G26    29.53F WCI  20

$$

LMZ046-743>745-131700-
SOUTHERN LAKE MICHIGAN

STATION/POSITION TIME  TEMP    WIND        PRES    WAVE
                       AIR SEA DIR/SP/G            HT
                 (UTC) (F)     (DEG/KT/KT) (MB)    (FT)
BURNS HARBOR     1540   29     160/ 15/ 25  999.3F
MICHIGAN CITY    1530   26     150/ 18/ 21   N/A

$$

INZ004-005-014>016-021>024-131700-
NORTH CENTRAL INDIANA

CITY           SKY/WX    TMP DP  RH WIND       PRES   REMARKS
ELKHART        CLOUDY    25  10  54 SE12      29.59F WCI  14
GOSHEN         CLOUDY    24  11  57 S17       29.61F WCI  11
SOUTH BEND     CLOUDY    24  13  62 S16       29.57F WCI  11

$$

INZ006>009-017-018-025>027-131700-
NORTHEAST INDIANA

CITY           SKY/WX    TMP DP  RH WIND       PRES   REMARKS
FORT WAYNE     CLOUDY    24  13  62 S14       29.69F WCI  12
KENDALLVILLE + CLOUDY    22  12  66 S9        29.67F WCI  11

$$

INZ028-029-035-036-043>045-051>053-131700-
WEST CENTRAL INDIANA

CITY           SKY/WX    TMP DP  RH WIND       PRES   REMARKS
LAFAYETTE      CLOUDY    31  12  45 S16G22    29.59F WCI  20
TERRE HAUTE    MOSUNNY   34  12  40 S18G29    29.66F WCI  23

$$

INZ030>032-037>040-046>048-054>057-064-065-131700-
CENTRAL INDIANA

CITY           SKY/WX    TMP DP  RH WIND       PRES   REMARKS
ANDERSON       CLOUDY    27   9  46 S17G29    29.71  WCI  14
COLUMBUS       CLOUDY    28   7  40 S16G23    29.78F WCI  17
INDIANAPOLIS   CLOUDY    32  10  40 S17       29.69F WCI  21
-EAGLE CREEK   CLOUDY    31   8  38 S12G22    29.68F WCI  22
KOKOMO +       CLOUDY    27  12  53 S20G26    29.64F WCI  13
MT COMFORT *+  CLOUDY    27  14  59 S15G21    29.70F WCI  15
SHELBYVILLE    CLOUDY    29   9  43 S20G28    29.74F WCI  16

$$

INZ033-034-041-042-049-050-058-059-131700-
EAST CENTRAL INDIANA

CITY           SKY/WX    TMP DP  RH WIND       PRES   REMARKS
MUNCIE         CLOUDY    28   8  43 S16G24    29.69F WCI  16
RICHMOND +     CLOUDY    23  12  63 S17       29.77F WCI   9

$$

INZ060-061-067>069-081>083-085>088-131700-
SOUTHWEST INDIANA

CITY           SKY/WX    TMP DP  RH WIND       PRES   REMARKS
EVANSVILLE     SUNNY     37  15  40 S20G29    29.80F WCI  27
HUNTINGBURG +  PTSUNNY   36  15  42 S18       29.81F WCI  26

$$

INZ062-063-066-070>080-084-089>092-131700-
SOUTH CENTRAL AND SOUTHEAST INDIANA

CITY           SKY/WX    TMP DP  RH WIND       PRES   REMARKS
BLOOMINGTON    CLOUDY    32  10  40 S12G20    29.73F WCI  23
MADISON *+     CLOUDY    32   9  37 S15       29.83F WCI  22
SEYMOUR +      CLOUDY    34  12  40 S14       29.79F WCI  24

$$





USA.gov is the U.S. government's official web portal to all federal, state and local government web resources and services.